sat.trackr.live / text

‹ back to catalog

STARLINK-2521

NORAD 48648 · 2021-044L

PAYLOAD ACTIVE UNKNOWN

§ Identity

Operator
Country
US
Launch date
2021-05-26
Launch site
AFETR
Launch vehicle
Mass (kg)
RCS (m²)

Purposes: comms

External: N2YO · Heavens-Above · Gunter

§ Orbital elements

Epoch: 2026-09-12T16:36:07.727040Z

Period
94.01 min
Inclination
53.1591°
Eccentricity
0.0001268
Mean motion
15.31704169 rev/d
Perigee alt
469.9 km
Apogee alt
471.6 km
Semi-major
6,848.9 km
B*
1.4306e-4
RAAN
323.7358°
Arg perigee
88.7007°
Mean anomaly
271.4140°
Rev number
29,248

§ Raw data

STARLINK-25211 48648U 21044L   26255.69175610  .00004077  00000+0  14306-3 0  99902 48648  53.1591 323.7358 0001268  88.7007 271.4140 15.31704169292485

JSON: /api/v1/satellites/48648 · /tle

For live sub-satellite position, see the globe view (requires WebGL).

§ Visibility from observer

Set your observer location to see the next 7 days of passes ≥ 10°. The values pass through the URL so the page stays shareable.

No JS? Fill the form by hand. The geolocation button needs JavaScript.